[[{"header":{"parameterUnit":"m.s-1","parameterCategory":1,"la1":30.2991,"la2":30.254,"lo1":-89.0895,"lo2":-89.0444,"dy":0.0017,"dx":0.0017,"nx":28,"ny":28,"refTime":"2025-04-24T03:00:00:Z","depth":0,"parameterNumber":2,"parameterNumberName":"U-component_of_WINDS"},"data":[0,0,0,0,0,0,0,0,0,0,0,0,0,0,0,0,0,0,0,0,0,0,0,0,0,0,0,0,0,0,0,0,0,0,0,0,0,0,0,0,0,0,0,0,0,0,0,0,0,0,0,0,0,0,0,0,0,0,-2.3416,-2.3416,0,-2.3439,-2.344,-2.344,-2.3389,-2.3388,-2.3386,-2.3385,-2.3409,-2.3411,-2.3413,0,0,0,0,0,0,0,0,0,0,0,0,0,-2.3327,-2.3329,-2.3416,-2.3416,-2.3416,-2.3439,-2.344,-2.344,-2.339,-2.3388,-2.3386,-2.3384,-2.3408,-2.3411,-2.3413,0,0,0,0,0,0,0,0,0,0,0,0,0,-2.336,-2.333,-2.3416,-2.3394,-2.3392,-2.3439,-2.344,-2.344,-2.339,-2.3388,-2.3385,-2.3383,-2.3407,-2.341,-2.3413,-2.3482,0,0,-2.3423,-2.3425,0,0,0,0,0,0,0,0,-2.3358,-2.3363,-2.3397,-2.3396,-2.3394,-2.3409,-2.3417,-2.3454,-2.3391,-2.3391,-2.3385,-2.3382,-2.3411,-2.3414,-2.3423,-2.3484,-2.3485,-2.3424,-2.3426,-2.3427,-2.3428,0,0,0,0,0,0,0,-2.3356,-2.3362,-2.3425,-2.3397,-2.3396,-2.3383,-2.3385,-2.3424,-2.3414,-2.3391,-2.3387,-2.3391,-2.3409,-2.342,-2.3423,-2.3485,-2.3424,-2.3426,-2.3428,-2.343,-2.3603,-2.3605,0,0,0,0,0,0,-2.3356,-2.336,-2.3424,-2.3426,-2.337,-2.3387,-2.3389,-2.3407,-2.3414,-2.3412,-2.3393,-2.3388,-2.3416,-2.342,-2.3424,-2.3505,-2.3427,-2.343,-2.3432,-2.36,-2.3603,-2.3606,0,0,0,0,0,0,-2.3355,-2.3363,-2.3423,-2.3392,-2.3399,-2.3391,-2.3411,-2.3408,-2.3419,-2.3415,-2.3413,-2.3406,-2.3414,-2.342,-2.3468,-2.3505,-2.3431,-2.3434,-2.3597,-2.3601,-2.3605,-2.3668,0,0,0,0,0,0,-2.3352,-2.3362,-2.3388,-2.3393,-2.3401,-2.3467,-2.3413,-2.3411,-2.3425,-2.3419,-2.3427,-2.3426,-2.3413,-2.3464,-2.3472,-2.3508,-2.3437,-2.3594,-2.3599,-2.3604,-2.3662,-2.3673,-2.3683,0,0,0,0,0,-2.3349,-2.3405,-2.339,-2.3398,-2.3433,-2.3469,-2.3474,-2.3458,-2.3428,-2.3454,-2.3452,-2.3425,-2.35,-2.3469,-2.3477,-2.3516,-2.3591,-2.3597,-2.3603,-2.3658,-2.3671,-2.3682,0,0,0,0,0,0,-2.3405,-2.3405,-2.3388,-2.3447,-2.3459,-2.3461,-2.3493,-2.3473,-2.3493,-2.3486,-2.3466,-2.3468,-2.3521,-2.3523,-2.3489,-2.3583,-2.3541,-2.3549,-2.3579,-2.3592,-2.3602,-2.36,-2.344,0,0,0,0,0,-2.3424,-2.3453,-2.3452,-2.3504,-2.3511,-2.3501,-2.3517,-2.3503,-2.3514,-2.3519,-2.352,-2.3531,-2.3557,-2.3575,-2.3599,-2.3663,-2.3663,-2.3693,-2.3703,-2.3712,-2.3719,-2.3753,-2.3766,-2.3626,-2.3626,-2.3626,0,0,-2.3464,-2.3468,-2.3487,-2.3516,-2.3523,-2.3554,-2.3506,-2.354,-2.3563,-2.3524,-2.357,-2.3571,-2.3583,-2.3639,-2.3664,-2.3643,-2.3758,-2.3719,-2.3726,-2.3728,-2.376,-2.3773,-2.3785,-2.363,-2.3629,-2.3629,0,0,-2.3552,-2.3558,-2.3602,-2.361,-2.3622,-2.3615,-2.3626,-2.3631,-2.363,-2.3676,-2.3647,-2.3674,-2.372,-2.3729,-2.374,-2.3832,-2.3808,-2.384,-2.3894,-2.3927,-2.3938,-2.3947,-2.398,-2.3992,-2.3847,-2.3848,-2.3848,0,-2.3599,-2.3645,-2.3627,-2.3663,-2.3677,-2.3643,-2.3687,-2.3696,-2.3715,-2.3725,-2.3701,-2.3757,-2.3763,-2.3821,-2.3844,-2.3854,-2.3865,-2.3839,-2.3938,-2.3947,-2.3956,-2.3986,-2.3999,-2.3851,-2.3851,-2.385,-2.385,0,-2.3703,-2.3735,-2.3769,-2.3788,-2.3805,-2.3845,-2.3833,-2.3853,-2.3839,-2.3835,-2.3882,-2.3887,-2.3911,-2.3924,-2.3911,-2.3981,-2.3967,-2.3941,-2.3898,-2.3973,-2.4002,-2.4013,-2.3857,-2.3855,-2.3854,-2.3853,0,0,-2.3825,-2.3834,-2.3847,-2.3855,-2.3866,-2.389,-2.3929,-2.3953,-2.397,-2.3984,-2.4016,-2.4056,-2.4031,-2.4044,-2.4031,-2.406,-2.4132,-2.403,-2.403,-2.4048,-2.421,-2.4229,-2.4243,-2.4117,-2.4119,-2.4121,-2.4208,0,-2.3912,-2.3979,-2.3964,-2.403,-2.4059,-2.4027,-2.4061,-2.4072,-2.4069,-2.4094,-2.4091,-2.4119,-2.4085,-2.4092,-2.412,-2.4118,-2.4164,-2.4111,-2.4146,-2.4148,-2.4144,-2.4258,-2.4278,-2.436,-2.422,-2.4221,-2.4223,0,-2.4022,-2.404,-2.4109,-2.4115,-2.4126,-2.4157,-2.4177,-2.4201,-2.4212,-2.4209,-2.4223,-2.4204,-2.4243,-2.42,-2.4253,-2.4217,-2.4231,-2.4232,-2.4235,-2.4237,-2.4189,-2.4262,-2.4386,-2.4398,-2.424,-2.4239,-2.4238,0,-2.4104,-2.4146,-2.4192,-2.42,-2.4208,-2.4231,-2.4235,-2.4244,-2.4259,-2.4277,-2.4287,-2.431,-2.4322,-2.434,-2.4328,-2.4298,-2.4383,-2.4339,-2.438,-2.4381,-2.4399,-2.4398,-2.4526,-2.4409,-2.4409,-2.4408,-2.4408,0,-2.4201,-2.4244,-2.4229,-2.4258,-2.4305,-2.4288,-2.4335,-2.4336,-2.4344,-2.4372,-2.4347,-2.4374,-2.4357,-2.4383,-2.4374,-2.4419,-2.4424,-2.4422,-2.4419,-2.4424,-2.4424,-2.4432,-2.4426,-2.4412,-2.4411,-2.441,-2.441,0,-2.4301,-2.4292,-2.434,-2.4344,-2.4346,-2.4381,-2.4384,-2.4411,-2.4407,-2.4443,-2.445,-2.4444,-2.4473,-2.4463,-2.4494,-2.4488,-2.4545,-2.4535,-2.4541,-2.4538,-2.458,-2.4576,-2.4717,-2.4735,-2.4607,-2.4608,-2.4609,0,-2.4363,-2.4396,-2.4403,-2.442,-2.4426,-2.4454,-2.4469,-2.4454,-2.4471,-2.4487,-2.4511,-2.4538,-2.4558,-2.4606,-2.4604,-2.4628,-2.4618,-2.4666,-2.4621,-2.4625,-2.4618,-2.4616,-2.4619,-2.4674,-2.4676,-2.4677,-2.4678,0,-2.4475,-2.4469,-2.4492,-2.4514,-2.4534,-2.455,-2.4564,-2.458,-2.4565,-2.4586,-2.4615,-2.4631,-2.4663,-2.4689,-2.4711,-2.4715,-2.4695,-2.4692,-2.4703,-2.4708,-2.471,-2.4709,-2.4565,-2.4689,-2.4688,-2.4687,-2.4686,-2.4686,-2.4558,-2.4585,-2.4594,-2.4621,-2.463,-2.4644,-2.4669,-2.4668,-2.4692,-2.4717,-2.4706,-2.474,-2.475,-2.4777,-2.4785,-2.4811,-2.4792,-2.4808,-2.4812,-2.4816,-2.4821,-2.4706,-2.4815,-2.4814,-2.4814,-2.4814,-2.4814,0,-2.4668,-2.4672,-2.4697,-2.4718,-2.4739,-2.4717,-2.4732,-2.4751,-2.4781,-2.4793,-2.4813,-2.4847,-2.4873,-2.4873,-2.4897,-2.4918,-2.4909,-2.4925,-2.4923,-2.4924,-2.4836,-2.4824,-2.4932,-2.4932,-2.4932,-2.4932,-2.4932,-2.4932,-2.4727,-2.4772,-2.4768,-2.4817,-2.4821,-2.4854,-2.4864,-2.4877,-2.4886,-2.4925,-2.4946,-2.4946,-2.4953,-2.4978,-2.5001,-2.5,-2.501,-2.5029,-2.5025,-2.4942,-2.4931,-2.4919,-2.4908,-2.5032,-2.5032,-2.5111,-2.5112,-2.5112]},{"header":{"parameterUnit":"m.s-1","parameterCategory":1,"la1":30.2991,"la2":30.254,"lo1":-89.0895,"lo2":-89.0444,"dy":0.0017,"dx":0.0017,"nx":28,"ny":28,"refTime":"2025-04-24T03:00:00:Z","depth":0,"parameterNumber":3,"parameterNumberName":"V-component_of_WINDS"},"data":[0,0,0,0,0,0,0,0,0,0,0,0,0,0,0,0,0,0,0,0,0,0,0,0,0,0,0,0,0,0,0,0,0,0,0,0,0,0,0,0,0,0,0,0,0,0,0,0,0,0,0,0,0,0,0,0,0,0,2.0547,2.0547,0,2.0552,2.0552,2.0553,2.0516,2.0515,2.0514,2.0513,2.0518,2.0519,2.052,0,0,0,0,0,0,0,0,0,0,0,0,0,2.0503,2.0504,2.0547,2.0547,2.0547,2.0552,2.0552,2.0553,2.0516,2.0515,2.0514,2.0512,2.0518,2.0519,2.052,0,0,0,0,0,0,0,0,0,0,0,0,0,2.0517,2.0504,2.0547,2.0529,2.0528,2.0552,2.0552,2.0553,2.0516,2.0515,2.0513,2.0512,2.0517,2.0519,2.052,2.0562,0,0,2.0526,2.0526,0,0,0,0,0,0,0,0,2.0516,2.0518,2.0532,2.053,2.0529,2.0532,2.0539,2.0556,2.0517,2.0521,2.0513,2.0511,2.0524,2.0525,2.0529,2.0562,2.0562,2.0526,2.0527,2.0527,2.0528,0,0,0,0,0,0,0,2.0515,2.0518,2.0549,2.0532,2.053,2.0521,2.0521,2.0542,2.0531,2.052,2.0518,2.0519,2.0523,2.0528,2.0529,2.0562,2.0526,2.0527,2.0528,2.0529,2.0628,2.063,0,0,0,0,0,0,2.0516,2.0517,2.0549,2.0549,2.0518,2.0523,2.0523,2.0532,2.0531,2.0529,2.052,2.0517,2.0526,2.0527,2.0529,2.0577,2.0527,2.0529,2.053,2.0627,2.0629,2.0631,0,0,0,0,0,0,2.0516,2.052,2.0548,2.0532,2.0535,2.0525,2.0536,2.0533,2.0538,2.053,2.0528,2.0527,2.0525,2.0527,2.0554,2.0576,2.053,2.0531,2.0625,2.0627,2.063,2.0672,0,0,0,0,0,0,2.0515,2.052,2.0535,2.0533,2.0536,2.0573,2.0537,2.0535,2.0541,2.0537,2.0537,2.0535,2.0524,2.0552,2.0555,2.0578,2.0532,2.0623,2.0626,2.0629,2.0669,2.0676,2.0682,0,0,0,0,0,2.0513,2.0547,2.0536,2.054,2.0556,2.0575,2.0577,2.0563,2.0543,2.0559,2.0554,2.0535,2.0574,2.0555,2.0559,2.0582,2.0621,2.0625,2.0629,2.0666,2.0674,2.0682,0,0,0,0,0,0,2.0552,2.0547,2.0534,2.0569,2.0573,2.0568,2.0588,2.0573,2.0582,2.0578,2.056,2.056,2.059,2.0589,2.0568,2.0621,2.0594,2.0599,2.0621,2.0629,2.0635,2.0634,2.0534,0,0,0,0,0,2.0565,2.0581,2.0575,2.0606,2.0608,2.0598,2.0606,2.0595,2.0598,2.0599,2.0596,2.0599,2.0612,2.062,2.0632,2.0669,2.0668,2.0687,2.0693,2.0699,2.0703,2.0721,2.0729,2.0643,2.0643,2.0643,0,0,2.0591,2.059,2.0601,2.0614,2.0615,2.0632,2.0599,2.0618,2.063,2.0602,2.0627,2.0625,2.0627,2.0659,2.0673,2.0659,2.0727,2.0704,2.0708,2.0709,2.0726,2.0734,2.0741,2.0645,2.0645,2.0644,0,0,2.0647,2.0648,2.0673,2.0676,2.0679,2.0671,2.0678,2.0676,2.0673,2.0698,2.0677,2.0691,2.0714,2.0716,2.072,2.0777,2.076,2.0781,2.0815,2.0834,2.084,2.0846,2.0865,2.0873,2.0785,2.0786,2.0786,0,2.0679,2.0703,2.0688,2.0708,2.0714,2.069,2.0715,2.0718,2.0724,2.0729,2.0713,2.0741,2.0741,2.0772,2.0786,2.0791,2.0797,2.0781,2.0841,2.0846,2.0852,2.087,2.0877,2.0788,2.0788,2.0788,2.0787,0,2.0741,2.0759,2.0779,2.0785,2.0794,2.0816,2.0805,2.0815,2.0804,2.0798,2.0823,2.0823,2.0833,2.084,2.0829,2.087,2.0861,2.0844,2.0815,2.0863,2.0879,2.0886,2.0792,2.0791,2.079,2.0789,0,0,2.0821,2.082,2.0827,2.083,2.0831,2.0844,2.0865,2.0876,2.0884,2.089,2.0906,2.0926,2.091,2.0914,2.0904,2.092,2.0964,2.09,2.09,2.0911,2.1008,2.102,2.1028,2.0953,2.0954,2.0955,2.1007,0,2.0875,2.0911,2.0898,2.0935,2.095,2.0927,2.0946,2.0949,2.0944,2.0956,2.0951,2.0965,2.0943,2.0945,2.096,2.0955,2.0983,2.0952,2.0968,2.0968,2.0966,2.1037,2.105,2.1099,2.1014,2.1015,2.1016,0,2.0942,2.095,2.0988,2.0986,2.0992,2.1009,2.1017,2.1029,2.1032,2.1027,2.1033,2.1018,2.1039,2.1012,2.1039,2.1018,2.1024,2.1023,2.1024,2.1024,2.0994,2.1038,2.1115,2.1122,2.1026,2.1025,2.1024,0,2.0994,2.1015,2.104,2.1043,2.1042,2.1054,2.1054,2.1055,2.1062,2.107,2.1074,2.1083,2.1088,2.1096,2.1085,2.1066,2.1113,2.1086,2.1109,2.111,2.1119,2.1119,2.1197,2.1126,2.1125,2.1125,2.1125,0,2.1055,2.1079,2.1064,2.1079,2.1105,2.1091,2.1117,2.1115,2.1116,2.113,2.1111,2.1125,2.1109,2.1122,2.1113,2.1136,2.1139,2.1136,2.1133,2.1137,2.1137,2.1139,2.1135,2.1127,2.1127,2.1126,2.1126,0,2.1118,2.1109,2.1134,2.1131,2.1131,2.1151,2.1148,2.1162,2.1156,2.1174,2.1178,2.1169,2.1182,2.1172,2.1185,2.1179,2.121,2.1203,2.1209,2.1206,2.123,2.1228,2.1312,2.1322,2.1245,2.1246,2.1247,0,2.1156,2.1174,2.1173,2.1181,2.1182,2.1196,2.1203,2.1189,2.1197,2.1201,2.1214,2.1226,2.1235,2.1257,2.1252,2.1262,2.1254,2.1283,2.1255,2.1258,2.1253,2.1252,2.1253,2.1288,2.1289,2.129,2.129,0,2.1225,2.1219,2.123,2.1239,2.1248,2.1254,2.1259,2.1267,2.1254,2.1263,2.1277,2.1283,2.1297,2.1309,2.1317,2.1316,2.1301,2.1299,2.1305,2.1308,2.1311,2.1309,2.1223,2.1297,2.1296,2.1296,2.1295,2.1295,2.1276,2.129,2.1292,2.1304,2.1306,2.1311,2.1324,2.132,2.1331,2.1341,2.1332,2.1348,2.135,2.1359,2.1361,2.1373,2.1361,2.1369,2.1371,2.1373,2.1376,2.131,2.1374,2.1374,2.1374,2.1374,2.1373,0,2.1342,2.1342,2.1354,2.1361,2.1371,2.1356,2.1361,2.137,2.1384,2.1387,2.1396,2.1411,2.1422,2.1418,2.1427,2.1438,2.1431,2.1441,2.1439,2.1439,2.1387,2.138,2.1446,2.1446,2.1446,2.1446,2.1446,2.1446,2.1378,2.1402,2.1397,2.1421,2.142,2.1436,2.1439,2.1444,2.1446,2.1464,2.1473,2.147,2.147,2.1479,2.1489,2.1487,2.1491,2.1503,2.1499,2.145,2.1443,2.1436,2.143,2.1505,2.1505,2.155,2.1551,2.1551]}]]